Location: Cabeza de los Veneras
(40.2000°N, 5.2000°W)
Time: 12:58:09
(UTC+00:00)

CSL-04 Rocket - Visible Passes

Search period start: 17 July 2025 00:00
Search period end: 27 July 2025 00:00
Orbit: 805 x 857 km, 98.7° (Epoch: 16 July)

Date Brightness Start Highest point End Pass type
(mag) Time Alt. Az. Time Alt. Az. Time Alt. Az.
17 Jul 4.7 20:48:24 10° S 20:53:32 45° W 20:58:47 10° NNW visible
18 Jul 4.1 20:30:41 10° S 20:36:02 66° WSW 20:41:30 10° NNW visible
19 Jul 3.7 20:13:10 10° SSE 20:18:34 87° ENE 20:24:06 10° NNW visible
19 Jul 6.4 21:58:04 10° WSW 21:59:34 11° W 22:01:04 10° WNW visible
20 Jul 6.1 21:38:29 10° SW 21:41:53 17° W 21:45:20 10° NW visible
21 Jul 5.7 21:19:55 10° SSW 21:24:15 24° W 21:28:39 10° NW visible
22 Jul 5.2 21:01:45 10° SSW 21:06:39 35° W 21:11:39 10° NNW visible
23 Jul 4.5 20:43:52 10° S 20:49:07 50° W 20:54:29 10° NNW visible
24 Jul 4.0 20:26:12 10° S 20:31:37 72° WSW 20:37:09 10° NNW visible
25 Jul 3.7 20:08:44 10° SSE 20:14:10 80° ENE 20:19:43 10° N visible
25 Jul 6.3 21:52:51 10° WSW 21:55:05 12° W 21:57:22 10° WNW visible
26 Jul 6.0 21:33:41 10° SW 21:37:25 19° W 21:41:12 10° NW visible
